STARLINK-11419, 62883

Orbit data source: Space-Track

STARLINK-11419, 62883 is a payload satellite owned by SpaceX/Seattle (US) in LEO that was launched on Tue, 04 Feb 2025 UTC via an FALCON 9 launch vehicle from the Air Force Eastern Test Range (AFETR). Payload-class satellites include a variety of spacecraft equipped with specific instruments for various scientific and technological missions. These include communications satellites like Starlink; space stations such as the ISS; scientific satellites like the Hubble; Earth observation satellites from companies like Planet Labs, Umbra, and HawkEye 360; GPS; miniature CubeSats for education and research; and military/defense satellites.

Loading next visibility...
Identifier
62883, 2025-024E
Orbit
LEO
Last TLE update
9 hours ago
Origin
Manufacturer
SpaceX/Seattle
Mission
Operational Commercial Communications
Bus & Motor
STARLINK V2M, Unknown motor
Mass
730 kg wet, ~700 kg dry
Launch date (UTC)
2025-02-04 (5 months ago)
Launch vehicle
FALCON 9
Launch site
Air Force Eastern Test Range (AFETR)
Object type
Payload
Rocket body
Debris
Shape & HBR
Box + 2 Pan, 29 m
Radar Cross Section
36.964 m², Large (>1 m²)

Expand to show TLE details & history

TLE from 9 hours ago
0 STARLINK-11419
1 62883U 25024E   25183.47080907  .00123458  00000-0  95041-3 0  9999
2 62883  43.0012 249.6951 0002397 274.6318  85.4276 15.70863571 24110
Epoch: 2025-07-02T11:17Z
TLE epoch observation values (Epoch: 2025-07-02T11:17:57.903Z)
Latitude
-0.00002°
Longitude
159.45238°
Altitude
356.071 km
Speed
7.697 km/s
True Right ascension
16h 38m 46s
True Declination
0° 00' 00"
Sunlit
Object was in full shadow at epoch
Visualization orbit readout
Latitude
3.34399°
Longitude
160.71849°
Altitude
355.495 km
Speed
7.698 km/s
Apparent Right ascension
18h 10m 37s
Apparent Declination
-19° 22' 21"
Sunlit
Object is in full shadow
Visualization observer readout
Local Sidereal Time
08:12:34
Azimuth
60.822° ENE
Elevation
-56.76°
Doppler factor
1
Orbital elements
Apogee altitude
360.024 km
Perigee altitude
356.794 km
Semi-major axis
6,736.546 km
Eccentricity
0.00024
Inclination
43.0012°
RAAN
249.6951°
Arg. of periapsis
274.6318°
True anomaly
Unknown
Mean anomaly
85.4276°
Eccentric anomaly
Unknown
Mean motion
3.92543 °/min
Orbital period
91.71 mins
BSTAR
0.00095041
Loading maneuver chart data...
Loading SW <> Apogee altitude chart data...
Loading historical data...
Loading historical data...
Loading historical data...
Loading historical data...
Loading historical data...
Loading historical data...
Loading historical data...

STARLINK-11419 Visibility forecast

Observer location: undefined°, undefined°

Span
Click to sort rows by Start time (UTC) header in descending order
Start Az.
Max El. time (UTC)
Max El. Az.
Max El.
End time (UTC)
End Az.
4 mins2025-07-03 07:20:32.096Z191.269° SSW2025-07-03 07:22:32.096Z137.289° SSE19.898°2025-07-03 07:24:32.096Z95.165° ESE
4 mins2025-07-03 08:56:32.096Z260.492° W2025-07-03 08:58:32.096Z50.877° ENE40.307°2025-07-03 09:00:32.096Z69.57° E
4 mins2025-07-03 10:32:32.096Z295.283° NW2025-07-03 10:34:32.096Z12.832° NNE34.007°2025-07-03 10:36:32.096Z70.347° E
4 mins2025-07-03 12:09:32.096Z290.09° WNW2025-07-03 12:10:32.096Z314.369° NW44.827°2025-07-03 12:13:32.096Z107.903° ESE
|